Current Weather Conditions: station 63115

sailwx.info

Last reported at 2016-May-29 10:25 UTC.
Time now 2016-May-31 21:52 UTC

Location: N 61°36' E 001°18'.
View on Google Maps.

See reports from other nearby stations

  
Tides and Currents Weather Stations Pressure Air Temp Water Temp Dewpoint Dewpoint Depression Visibility Wind Speed Wind Dir Waves Ship Positions
date/time (UTC)wind fromknots sea level pressurealtimeterstation pressurevisibilityair tempwater tempwave heightnotes
2016-May-31 21:00 360 22 5.4 8.7 2.0
2016-May-31 20:00 360 20 5.4 8.9 1.9
2016-May-31 19:00 010 20 5.4 8.9 1.9
2016-May-31 18:00 360 20 5.4 8.8 1.9
2016-May-31 17:00 010 20 5.4 8.8 1.8
2016-May-31 16:00 010 20 5.4 8.9 1.9
2016-May-31 15:00 010 20 5.4 9.0 1.7
2016-May-31 14:00 360 20 10.8 9.0 1.8
2016-May-31 13:00 360 20 10.8 9.0 1.7
2016-May-31 12:00 360 18 5.4 9.0 1.7
2016-May-31 11:00 010 17 5.4 9.0 1.7
2016-May-31 10:00 010 20 5.4 8.9 1.7
2016-May-31 09:00 010 20 5.4 8.7 1.6
2016-May-31 08:00 010 19 5.4 8.7 1.6
2016-May-31 07:00 010 20 5.4 8.6 1.8
2016-May-31 06:00 010 20 5.4 8.5 1.7
2016-May-31 05:00 010 20 5.4 8.6 1.7
2016-May-31 04:00 010 19 5.4 8.6 1.7
2016-May-31 03:00 010 19 5.4 8.6 1.6
2016-May-31 02:00 010 19 2.2 8.6 1.6
2016-May-31 01:00 010 19 2.2 8.5 1.6
2016-May-31 00:00 010 19 2.2 8.6 1.5
2016-May-30 23:00 360 18 0.1 8.7 1.5
2016-May-30 22:00 360 18 0.0 8.8 1.4
2016-May-30 21:00 360 18 0.0 9.0 1.5
2016-May-30 20:00 360 17 0.0 9.0 1.2
2016-May-30 19:00 350 18 0.0 8.8 1.0
2016-May-30 18:00 350 18 1.1 8.6 1.0
2016-May-30 17:00 350 18 0.1 8.4 1.0
2016-May-30 16:00 350 18 2.2 8.2 1.0
2016-May-30 15:00 350 16 5.4 8.1 1.0
2016-May-30 14:00 350 15 5.4 8.1 1.0
2016-May-30 13:00 350 15 5.4 8.0 0.9
2016-May-30 12:00 360 15 5.4 7.9 1.0
2016-May-30 11:00 350 15 2.2 7.8 1.1
2016-May-30 10:00 350 14 0.0 7.9 1.0
2016-May-30 09:00 350 15 0.1 8.1 1.0
2016-May-30 08:00 360 13 1.1 8.6 0.9
2016-May-30 07:00 350 13 0.3 8.5 0.8
2016-May-30 06:00 350 15 2.2 9.3 0.8
2016-May-30 05:00 350 16 27.0 9.9 0.7
2016-May-30 04:00 350 13 27.010.0 0.8
2016-May-30 03:00 350 11 27.010.4 0.9
2016-May-30 02:00 350 4 27.010.2 0.8
2016-May-30 01:00 360 11 27.010.9 0.8
2016-May-30 00:00 020 9 27.011.8 0.8
2016-May-29 23:00 020 8 10.812.0 0.8
2016-May-29 22:00 040 6 10.813.6 0.8
2016-May-29 21:00 040 7 10.813.6 0.8